Location: Ladrillo (historical)
(32.8195°N, 117.2231°W)
Time: 01:13:48
(UTC+00:00)

Courier 1B - Pass Details

Date: 15 March 2021
Orbit: 963 x 1209 km, 28.3° (Epoch: 15 April)

Event Time Altitude Azimuth Distance (km) Brightness Sun altitude
Rises 08:54:00 0° 217° (SW) 4,045 - -56.5°
Reaches altitude 10° 08:57:31 10° 204° (SSW) 3,051 - -56.1°
Maximum altitude 09:03:11 23° 155° (SSE) 2,168 - -55.6°
Drops below altitude 10° 09:08:37 10° 105° (ESE) 2,922 - -55.0°
Sets 09:11:53 0° 92° (E) 3,834 - -54.6°
